www.pogodaiklimat.ru

Погода и климат >> Архив погоды >> Бангладеш >> Стримангал


ПОГОДА в Стримангале

  • Прогноз погоды в Стримангале
  • Монитор погоды в Стримангале

АРХИВ ПОГОДЫ в Стримангале

Время (UTC), дата Ветер
(напр.,м/с)
 
Видим.   Явления Облачность Т
(С)
Тd
(С)
f
(%)
Тe
(С)
Тes
(С)
Комфортность P
(гПа)
Po
(гПа)
Тmin
(С)
Tmax
(С)
R
(мм)
R24
(мм)
S
(см)
18 18.08 штиль 0 5000 м 1/1 540 м
[Sc Ac trans]
+26.0 +25.0 94 +37 +37 очень
душно
1008.2 1005.7
00 19.08 штиль 0 6000 м 5/4 360 м
[St Ac As]
+25.9 +25.0 95 +37 +37 очень
душно
1007.4 1004.8
03 19.08 Ю 2 6000 м 6/6 450 м
[Sc diur, vesp Ac trans]
+29.0 +25.0 79 +42 +47 опасность
перегрева
1009.1 1006.6 +25.5
06 19.08 Ю 1 6000 м 6/6 450 м
[Sc diur, vesp]
+32.2 +25.0 66 +46 +56 опасность
перегрева
1007.8 1005.3
09 19.08 СВ 2 6000 м 6/6 450 м
[Cb calv Ac trans]
+31.6 +26.0 72 +47 +52 опасность
перегрева
1004.9 1002.4
12 19.08 Ю 1 6000 м 4/4 480 м
[Sc diur, vesp Ac trans]
+30.6 +26.0 77 +46 +46 опасность
перегрева
1004.1 1001.6 +34.0
15 19.08 штиль 0 5000 м 4/4 480 м
[Sc diur, vesp]
+27.5 +27.0 97 +43 +43 опасность
перегрева
1006.2 1003.7
18 19.08 штиль 0 5000 м 3/3 480 м
[Sc diur, vesp]
+26.8 +26.0 95 +40 +40 очень
душно
1006.9 1004.4
00 20.08 штиль 0 4500 м мгла 5/3 480 м
[Sc diur, vesp Ac As]
+26.4 +25.0 92 +38 +38 очень
душно
1006.3 1003.8
03 20.08 Ю 1 6000 м 8/5 360 м
[St As op]
+29.2 +26.0 83 +44 +48 опасность
перегрева
1007.2 1004.7 +26.0
06 20.08 Ю 1 6000 м 8/5 480 м
[Cb calv Ac As]
+32.0 +25.0 67 +46 +53 опасность
перегрева
1005.7 1003.2
09 20.08 Ю 1 6000 м 4/3 480 м
[Sc diur, vesp Ac As]
+33.8 +24.0 57 +46 +54 опасность
перегрева
1003.4 1000.9
12 20.08 штиль 0 6000 м 8/1 540 м
[Sc Ac trans]
+32.0 +27.0 75 +50 +50 опасность
перегрева
1001.7 999.3 +34.6
15 20.08 ЮВ 1 5000 м 8/6 450 м
[Sc diur, vesp Ac As]
+28.4 +26.0 87 +43 +43 опасность
перегрева
1003.9 1001.4
18 20.08 штиль 0 5000 м 8/6 450 м
[Sc diur, vesp Ac As]
+27.6 +27.0 97 +43 +43 опасность
перегрева
1005.0 1002.5
00 21.08 штиль 0 6000 м 6/3 540 м
[Sc diur, vesp Ac trans Ci fib]
+26.6 +26.0 97 +40 +40 очень
душно
1004.7 1002.2
03 21.08 ЮЗ 1 6000 м 6/6 450 м
[Sc diur, vesp Ac trans]
+30.5 +27.0 82 +48 +54 опасность
перегрева
1004.5 1002.0 +26.5
06 21.08 С 1 6000 м 6/5 480 м
[Sc diur, vesp Ac As]
+33.8 +26.0 64 +50 +60 опасность
перегрева
1003.4 1000.9
09 21.08 З 1 6000 м 9/6 450 м
[Sc diur, vesp Ac As]
+33.5 +26.0 65 +49 +52 опасность
перегрева
1001.2 998.8
12 21.08 штиль 0 6000 м 9/5 480 м
[Sc diur, vesp Ac As]
+31.1 +29.0 89 +54 +54 опасность
перегрева
1000.6 998.2 +34.8
15 21.08 штиль 0 5000 м 4/4 480 м
[Sc diur, vesp]
+29.5 +29.0 97 +51 +51 опасность
перегрева
1002.8 1000.3
18 21.08 штиль 0 5000 м зарница 8/5 480 м
[Cb calv Ac trans]
+28.5 +28.0 97 +47 +47 опасность
перегрева
1003.1 1000.6
00 22.08 В 1 5000 м в посл. час дождь {гроза} 9/6 300 м
[St Ac As]
+25.0 +24.0 94 +34 +34 очень
душно
1002.9 1000.4 3
03 22.08 ЮВ 1 6000 м 5/4 480 м
[Sc diur, vesp As op]
+30.5 +26.0 77 +46 +53 опасность
перегрева
1003.5 1001.0 +24.5
06 22.08 ЮВ 1 6000 м 4/4 480 м
[Sc diur, vesp Ac As]
+33.2 +26.0 66 +49 +64 опасность
перегрева
1002.4 999.9
09 22.08 Ю 1 6000 м 6/5 480 м
[Sc diur, vesp Ac As]
+35.0 +25.0 56 +48 +54 опасность
перегрева
999.3 996.9
12 22.08 штиль 0 5000 м 9/6 450 м
[Cb calv Ac As]
+31.8 +29.0 85 +55 +55 опасность
перегрева
1000.1 997.6 +36.0
15 22.08 ЮВ 2 5000 м в посл. час гроза 8/6 300 м
[Cb calv As op]
+26.2 +26.0 99 +39 +39 очень
душно
1003.3 1000.8
18 22.08 штиль 0 5000 м {гроза} 10/6 360 м
[Cb calv As op]
+27.0 +26.0 94 +40 +40 очень
душно
1003.8 1001.3 22
00 23.08 В 1 5000 м 10/6 300 м
[St As op]
+25.9 +25.0 95 +37 +37 очень
душно
1004.6 1002.1
03 23.08 В 1 6000 м 10/6 300 м
[St As op]
+27.0 +25.0 89 +39 +40 очень
душно
1004.5 1002.0 +25.6
06 23.08 СВ 1 6000 м 9/6 480 м
[Sc diur, vesp Ac As]
+29.5 +27.0 86 +46 +51 опасность
перегрева
1004.7 1002.2
09 23.08 В 1 6000 м гроза без осадков 9/6 480 м
[Cb calv Ac As]
+31.5 +27.0 77 +49 +52 опасность
перегрева
1001.9 999.4
12 23.08 СВ 1 6000 м {гроза} 9/6 450 м
[Cb calv Ac As]
+29.5 +27.0 86 +46 +46 опасность
перегрева
1002.9 1000.4 +32.2
18 23.08 В 1 4000 м гроза, ливневой дождь 10/8 240 м
[Cb calv As op]
+25.7 +25.0 96 +37 +37 очень
душно
1006.0 1003.5 7
00 24.08 В 1 5000 м в посл. час дождь {гроза} 10/6 360 м
[Frnb As op]
+25.1 +25.0 99 +36 +36 очень
душно
1006.1 1003.5 3
03 24.08 СВ 1 5000 м слаб. дождь 10/6 300 м
[Frnb As op]
+25.8 +25.8 100 +38 +39 очень
душно
1007.2 1004.7 +25.0
06 24.08 В 1 6000 м {дождь} 8/5 360 м
[St Ac As]
+28.1 +26.0 88 +42 +49 опасность
перегрева
1006.2 1003.7 9
09 24.08 ЮВ 1 6000 м 6/4 480 м
[Sc diur, vesp Ac As]
+31.4 +25.0 69 +45 +51 опасность
перегрева
1002.8 1000.3
12 24.08 ЮВ 1 6000 м 4/3 540 м
[Cb calv Ac trans]
+29.3 +25.0 78 +42 +42 опасность
перегрева
1002.7 1000.2 +32.0
15 24.08 штиль 0 4000 м 9/5 480 м
[Sc diur, vesp Ac As]
+26.8 +25.0 90 +39 +39 очень
душно
1004.9 1002.4
18 24.08 В 1 4000 м 10/6 300 м
[St As op]
+26.4 +25.0 92 +38 +38 очень
душно
1006.0 1003.5
00 25.08 СВ 1 6000 м в посл. час дождь 10/8 300 м
[St As op]
+25.5 +25.0 97 +36 +36 очень
душно
1005.2 1002.7 0.5
03 25.08 СВ 1 6000 м 9/5 480 м
[Sc diur, vesp Ac trans]
+28.2 +25.0 83 +41 +44 опасность
перегрева
1005.9 1003.4 +25.5
06 25.08 В 1 6000 м 6/3 480 м
[Sc diur, vesp Ac trans]
+32.1 +25.0 66 +46 +58 опасность
перегрева
1004.1 1001.7
09 25.08 СВ 1 6000 м 5/4 480 м
[Sc diur, vesp Ac As]
+33.9 +26.0 63 +49 +56 опасность
перегрева
1001.2 998.7
12 25.08 штиль 0 6000 м 6/3 480 м
[Sc diur, vesp Ac As]
+32.6 +28.0 77 +53 +53 опасность
перегрева
1001.7 999.2 +34.5

 

Местоположение метеостанции Стримангал (Бангладеш): широта 24.30 долгота 91.73 высота над уровнем моря 23 м.

В архиве по умолчанию представлена погода в Стримангале за последнюю неделю. Архивные данные за месяц целиком и за предыдущие месяцы, начиная с января 2011 года, Вы можете получить, выбрав интересующий диапазон дат из раскрывающегося списка и нажав кнопку "Ввод!".


*Определитесь, кто Вы:
робот инопланетянин человек

Внимание! Время в таблицах - всемирное. Для получения местного времени необходимо прибавить поправку, которая равна 6.5 ч.

Смотрите также архив погоды в соседних городах и на ближайших метеорологических станциях:

Погода в Кайлашахаре (Трипура, Индия) (27 км)
Погода в Агартале (Трипура, Индия) (68 км)
Погода в Силхете (Бангладеш) (68 км)
Погода в Никли (Бангладеш) (81 км)
Погода в Ленгпи (Мизорам, Индия) (104 км)
Погода в Черапунджи (Мегхалая, Индия) (106 км)
Погода в Комилле (Бангладеш) (112 км)
Погода в Аиджале (Мизорам, Индия) (119 км)
Погода в Силчаре (Ассам, Индия) (119 км)
Погода в Нетрокона-Садаре (Бангладеш) (121 км)

Пояснения к столбцам:

Ветер - указаны скорость ветра в м/с - средняя за 10 мин, порывы в срок и между сроками (в фигурных скобках) и направление, откуда дует ветер: С - северный, СВ - северо-восточный, В - восточный, ЮВ - юго-восточный, Ю - южный, ЮЗ - юго-западный, З - западный, СЗ - северо-западный.
Видимость - горизонтальная дальность видимости в метрах или километрах. При видимости от 1 до 10 км при отсутствии осадков обычно наблюдается дымка, при ухудшении видимости до 1 км и менее - туман. В сухую погоду видимость может ухудшаться дымом, пылью или мглою.
Явления - указаны атмосферные явления, наблюдавшиеся в срок или в последний час перед сроком; фигурными скобками обозначены явления, наблюдавшиеся между сроками (за 1-3 часа до срока); квадратными скобками обозначены град или гололедные отложения с указанием их диаметра в мм.
Облачность - указаны через наклонную черту общая и нижняя облачность в баллах и высота нижней границы облаков в метрах; квадратными скобками обозначены формы облаков: Ci - перистые, Cs - перисто-слоистые, Cc - перисто-кучевые, Ac - высококучевые, As - высокослоистые, Sc - слоисто-кучевые, Ns - слоисто-дождевые, Cu - кучевые, Cb - кучево-дождевые. Подробнее классификацию облаков см. в Атласе облаков (PDF).
T - Температура воздуха - температура, измеренная на высоте 2 м над землей.
Td - Температура точки росы - температура, при понижении до которой содержащийся в воздухе водяной пар достигнет насыщения.
f - Относительная влажность воздуха - влажноcть воздуха, измеренная на высоте 2 м над землей.
Te - Эффективная температура - температура, которую ощущает одетый по сезону человек в тени. Характеристика душности погоды. При расчете учитывается влияние влажности воздуха и скорости ветра на теплоощущения человека.
Tes - Эффективная температура на солнце - температура, которую ощущает человек, с поправкой на солнечный нагрев. Характеристика знойности погоды. Зависит от высоты солнца над горизонтом, облачности и скорости ветра. Ночью, в пасмурную погоду, а также при ветре 12 м/с и более поправка равна нулю.
P - Атмосферное давление - приведенное к уровню моря атмосферное давление.
Po - Атмосферное давление - измеренное на уровне метеостанции атмосферное давление.
Tmin - Минимальная температура - минимум температуры воздуха на высоте 2 м над землей.
Tmax - Максимальная температура - максимум температуры воздуха на высоте 2 м над землей.
R - Количество осадков - Количество выпавших осадков за период времени, мм. При наведении курсора мыши на число - период времени, за который выпало указанное количество осадков.
R24 - Количество осадков - Количество выпавших осадков за 24 часа, мм.
S - Снежный покров - Высота снежного покрова, см. При наведении курсора мыши на число - состояние снежного покрова и степень покрытия местности в баллах.